Location: Newark
(47.5833°N, 8.1500°E)
Time: 07:38:07
(UTC+00:00)

Vanguard 1 - Pass Details

Date: 31 October 2020
Orbit: 650 x 3833 km, 34.2° (Epoch: 29 November)

Event Time Altitude Azimuth Distance (km) Brightness Sun altitude
Rises 17:29:47 0° 280° (W) 7,909 16.3 -13.7°
Reaches altitude 10° 17:36:38 10° 271° (W) 6,652 15.7 -14.9°
Maximum altitude 17:51:55 28° 223° (SW) 4,320 13.8 -17.5°
Drops below altitude 10° 18:02:32 10° 172° (S) 4,532 13.4 -19.2°
Sets 18:06:08 0° 160° (SSE) 5,102 13.5 -19.9°
